When you browse on this site, cookies collect data to enhance your experience and personalize the content and advertising you see.
Visit our Privacy Policy to learn more. By continuing to use the site, you agree to this use of cookies and data.
  • In Hungary
  • List of Countries
  • For 7 days
  • Water Temperature
  • Weather Map
  • News
  • Weather Widgets
  • user-avatar
    Login

    Hourly Weather Danilevo

    Today, 18 September, Wednesday

    Time Temperature Precipitation Wind Pressure Humidity
    00:00 +4°C° 0 mm 2 mps 723 mmHg 95%
    01:00 +4°C° 0 mm 2 mps 722 mmHg 96%
    02:00 +5°C° 0 mm 1 mps 723 mmHg 96%
    03:00 +5°C° 0.2 mm 1 mps 722 mmHg 96%
    04:00 +6°C° 0.2 mm 1 mps 722 mmHg 96%
    05:00 +7°C° 0.2 mm 1 mps 722 mmHg 96%
    06:00 +7°C° 0.6 mm 1 mps 722 mmHg 96%
    07:00 +8°C° 0.6 mm 1 mps 722 mmHg 95%
    08:00 +8°C° 0.6 mm 1 mps 722 mmHg 95%
    09:00 +9°C° 0.3 mm 1 mps 722 mmHg 93%
    10:00 +9°C° 0.3 mm 1 mps 722 mmHg 91%
    11:00 +10°C° 0.3 mm 1 mps 722 mmHg 90%
    12:00 +10°C° 0.4 mm 1 mps 722 mmHg 88%
    13:00 +9°C° 0.4 mm 2 mps 722 mmHg 87%
    14:00 +10°C° 0.4 mm 2 mps 723 mmHg 85%
    15:00 +9°C° 0.3 mm 2 mps 723 mmHg 86%
    16:00 +9°C° 0.3 mm 2 mps 724 mmHg 87%
    17:00 +8°C° 0.3 mm 3 mps 724 mmHg 89%
    18:00 +8°C° 0 mm 3 mps 725 mmHg 91%
    19:00 +7°C° 0 mm 3 mps 725 mmHg 94%
    20:00 +5°C° 0 mm 3 mps 726 mmHg 96%
    21:00 +5°C° 0 mm 2 mps 726 mmHg 97%
    22:00 +5°C° 0 mm 2 mps 726 mmHg 97%
    23:00 +5°C° 0 mm 2 mps 727 mmHg 97%

    Tomorrow, 19 September, Thursday

    Time Temperature Precipitation Wind Pressure Humidity
    00:00 +4°C° 0 mm 2 mps 727 mmHg 97%
    01:00 +4°C° 0 mm 2 mps 728 mmHg 98%
    02:00 +4°C° 0 mm 2 mps 728 mmHg 98%
    03:00 +4°C° 0 mm 2 mps 729 mmHg 98%
    04:00 +4°C° 0 mm 2 mps 729 mmHg 98%
    05:00 +4°C° 0 mm 2 mps 730 mmHg 98%
    06:00 +3°C° 0 mm 3 mps 730 mmHg 96%
    07:00 +4°C° 0 mm 3 mps 731 mmHg 95%
    08:00 +4°C° 0 mm 3 mps 732 mmHg 93%
    09:00 +5°C° 0 mm 3 mps 732 mmHg 86%
    10:00 +7°C° 0 mm 3 mps 733 mmHg 79%
    11:00 +8°C° 0 mm 2 mps 733 mmHg 71%
    12:00 +9°C° 0.1 mm 3 mps 733 mmHg 67%
    13:00 +9°C° 0.1 mm 3 mps 734 mmHg 63%
    14:00 +10°C° 0.1 mm 4 mps 734 mmHg 59%
    15:00 +9°C° 0.1 mm 3 mps 734 mmHg 64%
    16:00 +8°C° 0.1 mm 2 mps 734 mmHg 70%
    17:00 +7°C° 0.1 mm 2 mps 734 mmHg 75%
    18:00 +7°C° 0 mm 1 mps 734 mmHg 78%
    19:00 +6°C° 0 mm 1 mps 734 mmHg 82%
    20:00 +4°C° 0 mm 1 mps 734 mmHg 86%
    21:00 +4°C° 0 mm 1 mps 734 mmHg 87%
    22:00 +4°C° 0 mm 1 mps 734 mmHg 88%
    23:00 +3°C° 0 mm 1 mps 734 mmHg 89%

    Day after tomorrow, 20 September, Friday

    Time Temperature Precipitation Wind Pressure Humidity
    00:00 +4°C° 0.1 mm 1 mps 734 mmHg 89%
    01:00 +4°C° 0.1 mm 1 mps 734 mmHg 90%
    02:00 +4°C° 0.1 mm 1 mps 734 mmHg 90%
    03:00 +4°C° 1.3 mm 1 mps 734 mmHg 93%
    04:00 +4°C° 1.3 mm 1 mps 734 mmHg 95%
    05:00 +3°C° 1.3 mm 2 mps 733 mmHg 97%
    06:00 +3°C° 1.1 mm 2 mps 733 mmHg 97%
    07:00 +4°C° 1.1 mm 2 mps 733 mmHg 96%
    08:00 +4°C° 1.1 mm 2 mps 733 mmHg 96%
    09:00 +4°C° 0 mm 2 mps 734 mmHg 92%
    10:00 +5°C° 0 mm 2 mps 734 mmHg 88%
    11:00 +6°C° 0 mm 2 mps 734 mmHg 84%
    12:00 +7°C° 0.1 mm 2 mps 735 mmHg 78%
    13:00 +8°C° 0.1 mm 2 mps 735 mmHg 72%
    14:00 +8°C° 0.1 mm 2 mps 735 mmHg 67%
    15:00 +8°C° 0.1 mm 2 mps 735 mmHg 71%
    16:00 +7°C° 0.1 mm 2 mps 735 mmHg 76%
    17:00 +5°C° 0.1 mm 3 mps 735 mmHg 81%
    18:00 +4°C° 0 mm 3 mps 736 mmHg 86%
    19:00 +4°C° 0 mm 2 mps 736 mmHg 91%
    20:00 +3°C° 0 mm 2 mps 737 mmHg 96%
    21:00 +2°C° 0 mm 2 mps 737 mmHg 96%
    22:00 +2°C° 0 mm 2 mps 737 mmHg 97%
    23:00 +1°C° 0 mm 2 mps 737 mmHg 97%

    21 September, Saturday

    Time Temperature Precipitation Wind Pressure Humidity
    00:00 +1°C° 0 mm 2 mps 737 mmHg 98%
    01:00 +1°C° 0 mm 2 mps 737 mmHg 98%
    02:00 +1°C° 0 mm 2 mps 737 mmHg 98%
    03:00 +1°C° 0 mm 2 mps 737 mmHg 98%
    04:00 +2°C° 0 mm 2 mps 738 mmHg 97%
    05:00 +2°C° 0 mm 2 mps 738 mmHg 96%
    06:00 +2°C° 0 mm 2 mps 738 mmHg 94%
    07:00 +3°C° 0 mm 2 mps 738 mmHg 92%
    08:00 +3°C° 0 mm 2 mps 738 mmHg 90%
    09:00 +4°C° 0 mm 3 mps 737 mmHg 82%
    10:00 +5°C° 0 mm 3 mps 737 mmHg 74%
    11:00 +6°C° 0 mm 4 mps 737 mmHg 66%
    12:00 +6°C° 0.2 mm 4 mps 736 mmHg 72%
    13:00 +6°C° 0.2 mm 4 mps 735 mmHg 78%
    14:00 +5°C° 0.2 mm 5 mps 735 mmHg 85%
    15:00 +5°C° 0.6 mm 5 mps 734 mmHg 89%
    16:00 +5°C° 0.6 mm 5 mps 733 mmHg 92%
    17:00 +5°C° 0.6 mm 5 mps 732 mmHg 96%
    18:00 +6°C° 0.8 mm 5 mps 732 mmHg 96%
    19:00 +7°C° 0.8 mm 5 mps 731 mmHg 96%
    20:00 +8°C° 0.8 mm 5 mps 731 mmHg 96%
    21:00 +9°C° 0.2 mm 5 mps 731 mmHg 95%
    22:00 +9°C° 0.2 mm 6 mps 730 mmHg 94%
    23:00 +10°C° 0.2 mm 6 mps 730 mmHg 93%

    22 September, Sunday

    Time Temperature Precipitation Wind Pressure Humidity
    00:00 +9°C° 0 mm 6 mps 729 mmHg 92%
    01:00 +9°C° 0 mm 6 mps 729 mmHg 92%
    02:00 +9°C° 0 mm 6 mps 729 mmHg 91%
    03:00 +9°C° 0.2 mm 7 mps 729 mmHg 91%
    04:00 +9°C° 0.2 mm 7 mps 729 mmHg 90%
    05:00 +9°C° 0.2 mm 7 mps 729 mmHg 90%
    06:00 +6°C° 0.1 mm 7 mps 729 mmHg 84%
    07:00 +4°C° 0.1 mm 7 mps 730 mmHg 79%
    08:00 +3°C° 0.1 mm 7 mps 730 mmHg 74%
    09:00 +2°C° 0 mm 8 mps 731 mmHg 69%
    10:00 +4°C° 0 mm 8 mps 732 mmHg 65%
    11:00 +5°C° 0 mm 8 mps 732 mmHg 60%
    12:00 +5°C° 0 mm 8 mps 733 mmHg 59%
    13:00 +6°C° 0 mm 7 mps 734 mmHg 57%
    14:00 +6°C° 0 mm 7 mps 734 mmHg 56%
    15:00 +5°C° 0 mm 6 mps 735 mmHg 58%
    16:00 +6°C° 0 mm 4 mps 735 mmHg 60%
    17:00 +5°C° 0 mm 3 mps 736 mmHg 62%
    18:00 +4°C° 0 mm 3 mps 736 mmHg 67%
    19:00 +3°C° 0 mm 2 mps 737 mmHg 72%
    20:00 +2°C° 0 mm 2 mps 737 mmHg 77%
    21:00 +2°C° 0 mm 2 mps 737 mmHg 80%
    22:00 +1°C° 0 mm 2 mps 738 mmHg 82%
    23:00 +2°C° 0 mm 1 mps 738 mmHg 84%

    23 September, Monday

    Time Temperature Precipitation Wind Pressure Humidity
    00:00 +1°C° 0 mm 1 mps 738 mmHg 85%
    01:00 +1°C° 0 mm 1 mps 738 mmHg 87%
    02:00 +1°C° 0 mm 1 mps 738 mmHg 88%
    03:00 +1°C° 0 mm 1 mps 739 mmHg 88%
    04:00 +1°C° 0 mm 1 mps 739 mmHg 87%
    05:00 +1°C° 0 mm 1 mps 739 mmHg 87%
    06:00 +2°C° 0 mm 1 mps 739 mmHg 81%
    07:00 +2°C° 0 mm 0 mps 739 mmHg 75%
    08:00 +4°C° 0 mm 0 mps 739 mmHg 69%
    09:00 +5°C° 0 mm 0 mps 739 mmHg 62%
    10:00 +7°C° 0 mm 0 mps 739 mmHg 55%
    11:00 +8°C° 0 mm 0 mps 739 mmHg 49%
    12:00 +9°C° 0 mm 1 mps 739 mmHg 47%
    13:00 +10°C° 0 mm 1 mps 738 mmHg 46%
    14:00 +10°C° 0 mm 1 mps 738 mmHg 45%
    15:00 +9°C° 0 mm 1 mps 738 mmHg 51%
    16:00 +8°C° 0 mm 1 mps 737 mmHg 56%
    17:00 +7°C° 0 mm 1 mps 737 mmHg 62%
    18:00 +6°C° 0 mm 1 mps 737 mmHg 67%
    19:00 +4°C° 0 mm 1 mps 737 mmHg 71%
    20:00 +3°C° 0 mm 1 mps 737 mmHg 75%
    21:00 +2°C° 0 mm 1 mps 737 mmHg 78%
    22:00 +2°C° 0 mm 1 mps 737 mmHg 81%
    23:00 0°C° 0 mm 0 mps 737 mmHg 84%
    Show more